Location: Madrid
(40.4000°N, 3.6830°W)
Time: 12:08:41
(UTC+02:00)

ISS - Pass Details

Date: 25 May 2020
Orbit: 417 x 419 km, 51.6° (Epoch: 31 May)

Event Time Altitude Azimuth Distance (km) Brightness Sun altitude
Rises 00:42:37 0° 312° (NW) 2,368 1.1 -25.2°
Reaches altitude 10° 00:45:01 10° 328° (NNW) 1,503 0.1 -25.4°
Enters shadow 00:47:40 23° 20° (NNE) 951 -1.5 -25.6°
